Weather History for KJXN - November, 2012

Change the Weather History Date:

Saturday, November 10, 2012

  Actual Average Record
Temperature  
Mean Temperature 56 °F 42 °F  
Max Temperature 64 °F 51 °F 67 °F (1949)
Min Temperature 47 °F 34 °F 19 °F (1957)
Degree Days  
Heating Degree Days 9 23  
Month to date heating degree days 269 212  
Since 1 July heating degree days 917 860  
Cooling Degree Days 0 0  
Month to date cooling degree days 0 0  
Year to date cooling degree days 873 592  
Growing Degree Days 5 (Base 50)    
Moisture  
Dew Point 45 °F    
Average Humidity 73    
Maximum Humidity 93    
Minimum Humidity 52    
Precipitation  
Precipitation 0.00 in 0.08 in 1.41 in (1985)
Month to date precipitation 0.02 0.87  
Year to date precipitation 22.89 27.90  
Sea Level Pressure  
Sea Level Pressure 30.06 in    
Wind  
Wind Speed 8 mph (SSE)    
Max Wind Speed 21 mph    
Max Gust Speed 28 mph    
Visibility 8 miles    
Events      
T = Trace of Precipitation, MM = Missing Value Source: NWS Daily Summary

Daily Weather History Graph

Daily Weather History Graph

Search for Another Location

Airport or City:

Trip Planner

Search our weather history database for the weather conditions in past years. The results will help you decide how hot, cold, wet, or windy it might be!

Date:

Astronomy

Nov. 10, 2012 Rise Set
Actual Time 7:22 AM EST 5:20 PM EST
Civil Twilight 6:52 AM EST 5:50 PM EST
Nautical Twilight 6:19 AM EST 6:23 PM EST
Astronomical Twilight 5:46 AM EST 6:56 PM EST
Moon 3:22 AM EST (11/10) 3:09 PM EST (11/10)
Length of Visible Light 10h 57m
Length of Day
9h 57m
Waning Crescent, 14% of the Moon is Illuminated
Nov 10
Waning Crescent
Nov 13
New
Nov 20
First Quarter
Nov 28
Full
Dec 6
Last Quarter

Hourly Weather History & Observations

Time (EST) Temp. Dew Point Humidity Pressure Visibility Wind Dir Wind Speed Gust Speed Precip Events Conditions
12:56 AM 46.9 °F 44.1 °F 90% 30.10 in 4.0 mi ESE 5.8 mph - N/A   Overcast
1:56 AM 46.9 °F 43.0 °F 86% 30.10 in 4.0 mi East 5.8 mph - N/A   Overcast
2:56 AM 46.9 °F 43.0 °F 86% 30.10 in 4.0 mi ESE 5.8 mph - N/A   Overcast
3:56 AM 46.9 °F 43.0 °F 86% 30.11 in 4.0 mi SE 5.8 mph - N/A   Overcast
4:56 AM 46.9 °F 43.0 °F 86% 30.10 in 4.0 mi SE 5.8 mph - N/A   Overcast
5:56 AM 48.0 °F 43.0 °F 83% 30.10 in 4.0 mi SE 4.6 mph - N/A   Haze
7:56 AM 48.9 °F 43.0 °F 80% 30.11 in 4.0 mi SE 4.6 mph - N/A   Haze
8:56 AM 50.0 °F 43.0 °F 77% 30.12 in 5.0 mi South 6.9 mph - N/A   Haze
9:12 AM 50.0 °F 42.8 °F 76% 30.11 in 5.0 mi SSE 6.9 mph - N/A   Haze
9:56 AM 52.0 °F 43.0 °F 71% 30.11 in 7.0 mi South 6.9 mph - N/A   Overcast
10:56 AM 55.0 °F 44.1 °F 67% 30.08 in 10.0 mi SSE 6.9 mph - N/A   Overcast
11:08 AM 55.4 °F 44.6 °F 67% 30.07 in 10.0 mi SSE 6.9 mph - N/A   Overcast
11:56 AM 57.0 °F 45.0 °F 64% 30.06 in 10.0 mi SSE 9.2 mph - N/A   Clear
12:56 PM 61.0 °F 46.0 °F 58% 30.06 in 10.0 mi South 12.7 mph 18.4 mph N/A   Partly Cloudy
1:56 PM 63.0 °F 46.0 °F 54% 30.02 in 10.0 mi South 9.2 mph - N/A   Mostly Cloudy
2:56 PM 64.0 °F 46.9 °F 54% 30.01 in 10.0 mi South 9.2 mph - N/A   Partly Cloudy
3:56 PM 63.0 °F 46.9 °F 56% 30.01 in 10.0 mi SSE 10.4 mph - N/A   Clear
4:56 PM 62.1 °F 46.9 °F 58% 30.02 in 10.0 mi South 12.7 mph - N/A   Scattered Clouds
5:56 PM 62.1 °F 46.9 °F 58% 29.98 in 10.0 mi SSE 18.4 mph 23.0 mph N/A   Mostly Cloudy
6:56 PM 63.0 °F 48.0 °F 58% 29.98 in 10.0 mi South 17.3 mph - N/A   Partly Cloudy
7:56 PM 64.0 °F 46.9 °F 54% 30.01 in 10.0 mi SSW 12.7 mph - N/A   Clear
8:56 PM 62.1 °F 46.0 °F 56% 30.03 in 10.0 mi SSW 8.1 mph - N/A   Clear
9:56 PM 63.0 °F 44.1 °F 50% 30.03 in 10.0 mi SSW 15.0 mph - N/A   Clear
10:56 PM 63.0 °F 44.1 °F 50% 30.03 in 10.0 mi SSW 16.1 mph 25.3 mph N/A   Partly Cloudy
11:56 PM 61.0 °F 45.0 °F 56% 30.03 in 10.0 mi SSW 11.5 mph 20.7 mph N/A   Clear